[[{"header":{"parameterUnit":"m.s-1","parameterCategory":1,"la1":30.2991,"la2":30.254,"lo1":-89.0895,"lo2":-89.0444,"dy":0.0017,"dx":0.0017,"nx":28,"ny":28,"refTime":"2025-01-06T09:00:00:Z","depth":0,"parameterNumber":2,"parameterNumberName":"U-component_of_WINDS"},"data":[0,0,0,0,0,0,0,0,0,0,0,0,0,0,0,0,0,0,0,0,0,0,0,0,0,0,0,0,0,0,0,0,0,0,0,0,0,0,0,0,0,0,0,0,0,0,0,0,0,0,0,0,0,0,0,0,0,0,-1.6225,-1.6226,0,-1.6312,-1.6313,-1.6314,-1.6243,-1.624,-1.6237,-1.6235,-1.6326,-1.6331,-1.6336,0,0,0,0,0,0,0,0,0,0,0,0,0,-1.5997,-1.6001,-1.6225,-1.6226,-1.6227,-1.6312,-1.6313,-1.6314,-1.6244,-1.624,-1.6237,-1.6233,-1.6324,-1.6331,-1.6337,0,0,0,0,0,0,0,0,0,0,0,0,0,-1.6091,-1.6003,-1.6224,-1.6202,-1.6201,-1.6312,-1.6313,-1.6315,-1.6245,-1.624,-1.6236,-1.6232,-1.6322,-1.633,-1.6338,-1.6476,0,0,-1.6362,-1.6365,0,0,0,0,0,0,0,0,-1.6086,-1.61,-1.6204,-1.6204,-1.6203,-1.6262,-1.6266,-1.6369,-1.6246,-1.6228,-1.6235,-1.6229,-1.6309,-1.6317,-1.6344,-1.648,-1.6484,-1.6362,-1.6367,-1.637,-1.6373,0,0,0,0,0,0,0,-1.608,-1.6096,-1.6259,-1.6206,-1.6205,-1.6188,-1.6196,-1.6286,-1.6293,-1.6229,-1.6224,-1.6236,-1.6307,-1.6336,-1.6345,-1.6486,-1.6362,-1.6369,-1.6374,-1.6377,-1.674,-1.6744,0,0,0,0,0,0,-1.6075,-1.6091,-1.6256,-1.6262,-1.6132,-1.6195,-1.6205,-1.6248,-1.6291,-1.6294,-1.6239,-1.6232,-1.6325,-1.6336,-1.6348,-1.6514,-1.637,-1.6378,-1.6382,-1.6735,-1.6741,-1.6746,0,0,0,0,0,0,-1.6071,-1.6091,-1.6253,-1.6175,-1.6194,-1.6204,-1.6253,-1.6252,-1.6281,-1.6299,-1.63,-1.6268,-1.6322,-1.6337,-1.6445,-1.6516,-1.6381,-1.6388,-1.6729,-1.6737,-1.6744,-1.6845,0,0,0,0,0,0,-1.6064,-1.6089,-1.6142,-1.6177,-1.6199,-1.6348,-1.6257,-1.6257,-1.6294,-1.6285,-1.6326,-1.6328,-1.632,-1.6433,-1.6452,-1.6524,-1.6395,-1.6723,-1.6733,-1.6741,-1.6836,-1.6855,-1.6872,0,0,0,0,0,-1.6056,-1.6168,-1.6145,-1.6166,-1.6265,-1.6353,-1.6365,-1.6353,-1.63,-1.6354,-1.6365,-1.6327,-1.6504,-1.6445,-1.6466,-1.6541,-1.6718,-1.673,-1.6741,-1.6828,-1.6852,-1.6872,0,0,0,0,0,0,-1.6143,-1.6172,-1.6148,-1.6273,-1.6311,-1.634,-1.6408,-1.6378,-1.6432,-1.6422,-1.6404,-1.6414,-1.6527,-1.6544,-1.6477,-1.6677,-1.6603,-1.6619,-1.6662,-1.6685,-1.6703,-1.6697,-1.6401,0,0,0,0,0,-1.6176,-1.6245,-1.6266,-1.6376,-1.6395,-1.6398,-1.6436,-1.6423,-1.6461,-1.6477,-1.6496,-1.6535,-1.66,-1.6643,-1.6703,-1.6837,-1.6845,-1.6899,-1.6917,-1.6932,-1.6946,-1.7018,-1.7043,-1.6783,-1.6783,-1.6782,0,0,-1.6247,-1.6271,-1.6316,-1.6394,-1.6421,-1.6493,-1.6412,-1.6492,-1.6545,-1.6489,-1.6592,-1.6607,-1.6649,-1.6771,-1.6825,-1.6789,-1.7019,-1.6946,-1.6957,-1.6964,-1.7032,-1.7057,-1.7079,-1.679,-1.6789,-1.6788,0,0,-1.6412,-1.6437,-1.6531,-1.6559,-1.6602,-1.6602,-1.6625,-1.6658,-1.6666,-1.6769,-1.6729,-1.6791,-1.6902,-1.6934,-1.6965,-1.714,-1.7107,-1.7159,-1.7256,-1.7326,-1.7346,-1.7365,-1.7428,-1.7451,-1.7173,-1.7174,-1.7174,0,-1.6495,-1.6601,-1.6583,-1.6665,-1.67,-1.6652,-1.6746,-1.6775,-1.6835,-1.6861,-1.6819,-1.6957,-1.6982,-1.711,-1.7152,-1.7178,-1.7204,-1.7156,-1.7345,-1.7363,-1.7379,-1.744,-1.7463,-1.718,-1.7179,-1.7179,-1.7178,0,-1.6701,-1.6774,-1.6845,-1.6903,-1.6946,-1.7035,-1.703,-1.7075,-1.7057,-1.7063,-1.7167,-1.7195,-1.726,-1.7289,-1.7273,-1.7415,-1.7391,-1.7347,-1.7273,-1.7411,-1.7467,-1.749,-1.7189,-1.7187,-1.7185,-1.7183,0,0,-1.6926,-1.6971,-1.6998,-1.7024,-1.7065,-1.7122,-1.7207,-1.727,-1.731,-1.7352,-1.7424,-1.7518,-1.7477,-1.7512,-1.7498,-1.756,-1.7697,-1.7509,-1.7509,-1.7544,-1.7856,-1.789,-1.7917,-1.7675,-1.7679,-1.7682,-1.7853,0,-1.7094,-1.7243,-1.7228,-1.7369,-1.7437,-1.7391,-1.7465,-1.7499,-1.7505,-1.7564,-1.757,-1.7638,-1.7579,-1.7599,-1.7658,-1.7669,-1.776,-1.7656,-1.7742,-1.7746,-1.7735,-1.7947,-1.7983,-1.8143,-1.7875,-1.7878,-1.7881,0,-1.7311,-1.736,-1.7508,-1.7539,-1.7567,-1.7634,-1.769,-1.7746,-1.7783,-1.7783,-1.7821,-1.7796,-1.7882,-1.7804,-1.7922,-1.7851,-1.7885,-1.7895,-1.7901,-1.791,-1.7823,-1.7963,-1.8194,-1.8219,-1.7915,-1.7913,-1.791,0,-1.7462,-1.7565,-1.7667,-1.769,-1.7728,-1.7776,-1.7794,-1.7826,-1.7865,-1.7913,-1.7938,-1.7995,-1.8028,-1.8073,-1.8064,-1.8008,-1.8185,-1.8106,-1.8188,-1.8189,-1.823,-1.8228,-1.8471,-1.8249,-1.8248,-1.8248,-1.8247,0,-1.7653,-1.7746,-1.7735,-1.7798,-1.79,-1.7882,-1.7983,-1.7995,-1.8024,-1.8088,-1.8051,-1.8112,-1.8096,-1.8157,-1.815,-1.8249,-1.8264,-1.8267,-1.8264,-1.8271,-1.8271,-1.8295,-1.8285,-1.8254,-1.8253,-1.8252,-1.825,0,-1.784,-1.7837,-1.7945,-1.7971,-1.798,-1.8054,-1.8077,-1.8136,-1.8138,-1.822,-1.8238,-1.8242,-1.8311,-1.8306,-1.8384,-1.838,-1.8502,-1.8486,-1.849,-1.8487,-1.857,-1.8563,-1.8839,-1.8874,-1.8628,-1.863,-1.8632,0,-1.7963,-1.8034,-1.8067,-1.8107,-1.8128,-1.8193,-1.8232,-1.8215,-1.8257,-1.8303,-1.8357,-1.8422,-1.8474,-1.8586,-1.8596,-1.8655,-1.8641,-1.8733,-1.865,-1.8655,-1.8644,-1.8641,-1.8648,-1.8751,-1.8754,-1.8756,-1.8758,0,-1.8183,-1.8177,-1.8234,-1.829,-1.8336,-1.838,-1.8419,-1.8454,-1.8442,-1.849,-1.856,-1.86,-1.8679,-1.8745,-1.88,-1.8819,-1.8787,-1.8783,-1.8806,-1.8815,-1.8815,-1.8817,-1.8537,-1.8778,-1.8776,-1.8774,-1.8773,-1.8773,-1.8343,-1.8403,-1.8435,-1.85,-1.8527,-1.8564,-1.8621,-1.863,-1.8688,-1.875,-1.8736,-1.8815,-1.8849,-1.8921,-1.8944,-1.9005,-1.8972,-1.9005,-1.9013,-1.9022,-1.9032,-1.8803,-1.9015,-1.9015,-1.9014,-1.9014,-1.9013,0,-1.8561,-1.8579,-1.8638,-1.8694,-1.8745,-1.8708,-1.8749,-1.8794,-1.8864,-1.8897,-1.8948,-1.9028,-1.9091,-1.9105,-1.9165,-1.9212,-1.9198,-1.9228,-1.9226,-1.923,-1.9058,-1.9033,-1.9238,-1.9238,-1.9238,-1.9238,-1.9238,-1.9237,-1.8681,-1.8781,-1.8779,-1.8891,-1.8908,-1.8985,-1.9012,-1.9046,-1.9073,-1.9163,-1.9215,-1.9223,-1.9249,-1.931,-1.9366,-1.9368,-1.9393,-1.9429,-1.9426,-1.9265,-1.9243,-1.9221,-1.9198,-1.9434,-1.9434,-1.9594,-1.9595,-1.9596]},{"header":{"parameterUnit":"m.s-1","parameterCategory":1,"la1":30.2991,"la2":30.254,"lo1":-89.0895,"lo2":-89.0444,"dy":0.0017,"dx":0.0017,"nx":28,"ny":28,"refTime":"2025-01-06T09:00:00:Z","depth":0,"parameterNumber":3,"parameterNumberName":"V-component_of_WINDS"},"data":[0,0,0,0,0,0,0,0,0,0,0,0,0,0,0,0,0,0,0,0,0,0,0,0,0,0,0,0,0,0,0,0,0,0,0,0,0,0,0,0,0,0,0,0,0,0,0,0,0,0,0,0,0,0,0,0,0,0,-6.0607,-6.0608,0,-6.07,-6.0701,-6.0702,-6.0606,-6.0602,-6.0599,-6.0595,-6.0687,-6.0692,-6.0698,0,0,0,0,0,0,0,0,0,0,0,0,0,-6.034,-6.0345,-6.0607,-6.0608,-6.0609,-6.07,-6.0701,-6.0703,-6.0607,-6.0602,-6.0598,-6.0593,-6.0685,-6.0692,-6.0699,0,0,0,0,0,0,0,0,0,0,0,0,0,-6.0447,-6.0347,-6.0607,-6.0572,-6.057,-6.07,-6.0701,-6.0703,-6.0608,-6.0602,-6.0596,-6.0591,-6.0682,-6.0691,-6.07,-6.0867,0,0,-6.0727,-6.0731,0,0,0,0,0,0,0,0,-6.0441,-6.0457,-6.0576,-6.0575,-6.0573,-6.0636,-6.0641,-6.0758,-6.0609,-6.0593,-6.0595,-6.0588,-6.0674,-6.0683,-6.0713,-6.0871,-6.0875,-6.0728,-6.0733,-6.0737,-6.0739,0,0,0,0,0,0,0,-6.0434,-6.0452,-6.0644,-6.0578,-6.0576,-6.055,-6.056,-6.0662,-6.0664,-6.0594,-6.0588,-6.06,-6.0672,-6.0705,-6.0714,-6.0876,-6.0727,-6.0735,-6.0741,-6.0744,-6.1173,-6.1178,0,0,0,0,0,0,-6.0431,-6.0447,-6.0641,-6.0646,-6.0492,-6.056,-6.057,-6.0621,-6.0662,-6.0663,-6.0605,-6.0595,-6.0692,-6.0704,-6.0717,-6.0914,-6.0737,-6.0745,-6.075,-6.1167,-6.1174,-6.1181,0,0,0,0,0,0,-6.0425,-6.0449,-6.0637,-6.0545,-6.0567,-6.0571,-6.0629,-6.0626,-6.0659,-6.067,-6.067,-6.0638,-6.0688,-6.0705,-6.083,-6.0915,-6.0749,-6.0757,-6.1159,-6.1169,-6.1177,-6.1309,0,0,0,0,0,0,-6.0418,-6.0448,-6.0513,-6.0547,-6.0572,-6.075,-6.0634,-6.0632,-6.0675,-6.0663,-6.0702,-6.0703,-6.0685,-6.0817,-6.0839,-6.0925,-6.0764,-6.1152,-6.1164,-6.1174,-6.1297,-6.1321,-6.1342,0,0,0,0,0,-6.0409,-6.0546,-6.0516,-6.054,-6.0654,-6.0755,-6.0769,-6.0748,-6.0682,-6.0746,-6.0753,-6.0701,-6.0903,-6.0831,-6.0854,-6.0944,-6.1146,-6.116,-6.1174,-6.1287,-6.1317,-6.1342,0,0,0,0,0,0,-6.052,-6.055,-6.0517,-6.067,-6.0711,-6.0739,-6.0819,-6.078,-6.084,-6.0827,-6.0796,-6.0805,-6.0938,-6.0953,-6.0873,-6.1106,-6.1013,-6.1032,-6.1091,-6.112,-6.1142,-6.1135,-6.0771,0,0,0,0,0,-6.0563,-6.0644,-6.0665,-6.0797,-6.0819,-6.0816,-6.086,-6.0839,-6.088,-6.0897,-6.0913,-6.0953,-6.1025,-6.1073,-6.114,-6.1299,-6.1304,-6.1372,-6.1394,-6.1413,-6.1429,-6.1512,-6.1542,-6.1225,-6.1225,-6.1225,0,0,-6.0651,-6.0677,-6.073,-6.082,-6.0849,-6.0933,-6.0831,-6.0924,-6.0985,-6.091,-6.1029,-6.1043,-6.1085,-6.1228,-6.1291,-6.1245,-6.1518,-6.143,-6.1445,-6.1452,-6.1529,-6.1559,-6.1586,-6.1235,-6.1233,-6.1231,0,0,-6.0853,-6.0883,-6.0995,-6.1026,-6.1073,-6.1069,-6.1096,-6.113,-6.1137,-6.1256,-6.1201,-6.1272,-6.1397,-6.1429,-6.1462,-6.1675,-6.1629,-6.1698,-6.1816,-6.1897,-6.1922,-6.1944,-6.2018,-6.2046,-6.1714,-6.1715,-6.1715,0,-6.0957,-6.1082,-6.1057,-6.1154,-6.1194,-6.1131,-6.1243,-6.1274,-6.134,-6.1368,-6.1316,-6.147,-6.1495,-6.1642,-6.1694,-6.1724,-6.1752,-6.1693,-6.1921,-6.1942,-6.1962,-6.2033,-6.2061,-6.1723,-6.1722,-6.1721,-6.172,0,-6.1206,-6.1293,-6.1378,-6.1444,-6.1493,-6.1598,-6.1587,-6.1639,-6.1614,-6.1616,-6.1737,-6.1764,-6.1834,-6.1868,-6.1844,-6.2012,-6.1981,-6.1926,-6.1831,-6.2001,-6.2067,-6.2094,-6.1734,-6.1731,-6.1729,-6.1727,0,0,-6.1482,-6.1532,-6.1563,-6.1591,-6.1637,-6.1703,-6.1803,-6.1873,-6.1918,-6.1965,-6.2047,-6.2154,-6.2102,-6.2139,-6.2118,-6.2189,-6.2354,-6.2124,-6.2125,-6.2165,-6.2538,-6.258,-6.2611,-6.2324,-6.2329,-6.2333,-6.2534,0,-6.1685,-6.1861,-6.184,-6.2007,-6.2086,-6.2026,-6.2113,-6.2149,-6.2153,-6.2219,-6.2222,-6.2298,-6.2225,-6.2247,-6.2314,-6.232,-6.2429,-6.2305,-6.2398,-6.2402,-6.2389,-6.2646,-6.269,-6.2879,-6.256,-6.2564,-6.2568,0,-6.1946,-6.2003,-6.2178,-6.2209,-6.2242,-6.2321,-6.2382,-6.2447,-6.2485,-6.2483,-6.2524,-6.249,-6.2588,-6.2493,-6.2626,-6.2542,-6.2579,-6.2587,-6.2594,-6.2601,-6.2494,-6.2659,-6.2939,-6.2967,-6.2608,-6.2605,-6.2602,0,-6.2128,-6.2248,-6.2368,-6.2394,-6.2435,-6.2491,-6.251,-6.2543,-6.2586,-6.2639,-6.2666,-6.273,-6.2764,-6.2813,-6.2796,-6.2729,-6.2933,-6.2836,-6.2931,-6.2932,-6.2977,-6.2974,-6.3265,-6.3002,-6.3002,-6.3001,-6.3001,0,-6.2357,-6.2466,-6.245,-6.2524,-6.2643,-6.2618,-6.2736,-6.2747,-6.2778,-6.2851,-6.2802,-6.2871,-6.2845,-6.2912,-6.29,-6.3011,-6.3027,-6.3026,-6.3021,-6.303,-6.303,-6.3053,-6.3039,-6.3009,-6.3007,-6.3006,-6.3004,0,-6.2581,-6.2575,-6.2701,-6.2729,-6.2738,-6.2825,-6.2848,-6.2916,-6.2915,-6.3008,-6.3028,-6.3027,-6.3103,-6.3091,-6.3176,-6.3167,-6.3305,-6.3285,-6.3293,-6.3288,-6.3384,-6.3374,-6.3699,-6.3739,-6.3451,-6.3454,-6.3456,0,-6.2727,-6.2809,-6.2846,-6.2892,-6.2915,-6.299,-6.3033,-6.3011,-6.3057,-6.3107,-6.3168,-6.3241,-6.3297,-6.3421,-6.3427,-6.349,-6.347,-6.358,-6.3479,-6.3485,-6.347,-6.3465,-6.3472,-6.3599,-6.3603,-6.3605,-6.3607,0,-6.2986,-6.2978,-6.3044,-6.3108,-6.3161,-6.321,-6.3254,-6.3294,-6.3275,-6.333,-6.3407,-6.3451,-6.3537,-6.3609,-6.3668,-6.3685,-6.3643,-6.3639,-6.3664,-6.3674,-6.3674,-6.3674,-6.3346,-6.3631,-6.3629,-6.3627,-6.3626,-6.3625,-6.3174,-6.3244,-6.328,-6.3354,-6.3385,-6.3427,-6.3491,-6.3499,-6.3564,-6.3633,-6.3615,-6.3703,-6.3737,-6.3813,-6.3836,-6.3903,-6.3862,-6.3899,-6.3909,-6.3918,-6.3929,-6.3665,-6.3914,-6.3913,-6.3913,-6.3912,-6.3911,0,-6.3429,-6.345,-6.3518,-6.3581,-6.3638,-6.3595,-6.364,-6.3691,-6.3769,-6.3805,-6.3862,-6.395,-6.4019,-6.4029,-6.4094,-6.4145,-6.4127,-6.4163,-6.4158,-6.4162,-6.3962,-6.3933,-6.4176,-6.4176,-6.4176,-6.4176,-6.4176,-6.4176,-6.3569,-6.3684,-6.3681,-6.381,-6.3829,-6.3916,-6.3945,-6.3983,-6.4011,-6.4113,-6.417,-6.4177,-6.4202,-6.4268,-6.4328,-6.4329,-6.4354,-6.4397,-6.4391,-6.4203,-6.4177,-6.4152,-6.4124,-6.4403,-6.4404,-6.4585,-6.4587,-6.4588]}]]